This is the latest recevied weather packets stored in our database for station/object EA2BJM-15. If no packets are shown the sender has not sent any weather packets the latest 10 day(s).
| Time | Temp. | Humidity | Pressure | Rain* | Wind** | Luminosity | Snow |
|---|---|---|---|---|---|---|---|
| 1787775357 | 30° C | 32% | 1008.8 hPa | 0 mm | - | - | - |
| 1787774457 | 30.56° C | 31% | 1007.8 hPa | 0 mm | - | - | - |
| 1787773557 | 30.56° C | 30% | 1007.8 hPa | 0 mm | - | - | - |
| 1787772656 | 31.11° C | 29% | 1007.8 hPa | 0 mm | - | - | - |
| 1787771756 | 31.11° C | 28% | 1007.8 hPa | 0 mm | - | - | - |
| 1787770857 | 31.67° C | 28% | 1006.8 hPa | 0 mm | - | - | - |
| 1787769957 | 31.67° C | 26% | 1006.8 hPa | 0 mm | - | - | - |
| 1787769057 | 32.22° C | 26% | 1006.8 hPa | 0 mm | - | - | - |
| 1787768156 | 32.78° C | 23% | 1006.8 hPa | 0 mm | - | - | - |
| 1787767256 | 33.33° C | 21% | 1006.8 hPa | 0 mm | - | - | - |
| 1787766356 | 33.89° C | 19% | 1006.8 hPa | 0 mm | - | - | - |
| 1787765456 | 34.44° C | 16% | 1005.8 hPa | 0 mm | - | - | - |
| 1787764556 | 34.44° C | 17% | 1005.8 hPa | 0 mm | - | - | - |
| 1787763656 | 34.44° C | 18% | 1005.8 hPa | 0 mm | - | - | - |
| 1787762755 | 34.44° C | 18% | 1005.8 hPa | 0 mm | - | - | - |
| 1787761855 | 34.44° C | 21% | 1005.8 hPa | 0 mm | - | - | - |
| 1787760954 | 34.44° C | 21% | 1005.8 hPa | 0 mm | - | - | - |
| 1787760054 | 35° C | 19% | 1005.8 hPa | 0 mm | - | - | - |
| 1787759156 | 35° C | 18% | 1005.8 hPa | 0 mm | - | - | - |
| 1787758256 | 35.56° C | 17% | 1005.8 hPa | 0 mm | - | - | - |
| 1787757356 | 35.56° C | 17% | 1005.8 hPa | 0 mm | - | - | - |
| 1787755555 | 35.56° C | 16% | 1005.8 hPa | 0 mm | - | - | - |
| 1787754655 | 35.56° C | 16% | 1005.8 hPa | 0 mm | - | - | - |
| 1787753755 | 35° C | 16% | 1006.8 hPa | 0 mm | - | - | - |
| 1787752855 | 35.56° C | 16% | 1006.8 hPa | 0 mm | - | - | - |
* Rain latest hour (hover to see other rain measurements)
** Current wind speed in m/s (hover to see current wind gust speed)